N8ASV Weather Reports


time (UTC)temp
C
wind
direction
speed
KPH
gust
KPH
rain 1hr
cm
rain 24hr
cm
rain mn
cm
humidity
%
barometer
mb
20260507201016 16 0 4.8 17.7 0.00 0.00 0.00 44 1012.3
20260507200016 16 293 3.2 11.3 0.00 0.00 0.00 40 1012.5
20260507195016 16 293 3.2 8.0 0.00 0.00 0.00 38 1012.5
20260507194036 16 293 1.6 4.8 0.00 0.00 0.00 42 1012.5
20260507193015 16 293 3.2 9.7 0.00 0.00 0.00 39 1012.7
20260507192015 16 315 1.6 8.0 0.00 0.00 0.00 47 1012.7
20260507191015 15 0 3.2 14.5 0.00 0.00 0.00 41 1012.6
20260507190015 15 0 6.4 17.7 0.00 0.00 0.00 42 1012.8
20260507185056 16 0 6.4 17.7 0.00 0.00 0.00 42 1012.8
20260507184038 15 248 3.2 9.7 0.00 0.00 0.00 46 1012.9
20260507183017 15 0 4.8 16.1 0.00 0.00 0.00 46 1012.8
20260507182017 15 293 4.8 14.5 0.00 0.00 0.00 49 1013.1
20260507181018 15 248 3.2 6.4 0.00 0.00 0.00 48 1013.1
20260507180017 15 293 3.2 8.0 0.00 0.00 0.00 49 1013.1
20260507175037 15 293 4.8 12.9 0.00 0.00 0.00 44 1013.3
20260507174037 15 270 3.2 11.3 0.00 0.00 0.00 46 1013.4
20260507173017 15 315 3.2 9.7 0.00 0.00 0.00 55 1013.5
20260507172017 15 315 3.2 8.0 0.00 0.00 0.00 50 1013.5
20260507171017 14 270 3.2 6.4 0.00 0.00 0.00 52 1013.9
20260507170017 14 0 8.0 20.9 0.00 0.00 0.00 45 1013.9
20260507165017 14 293 3.2 6.4 0.00 0.00 0.00 52 1014.0
20260507164017 14 338 4.8 17.7 0.00 0.00 0.00 44 1014.0
20260507163017 14 338 3.2 6.4 0.00 0.00 0.00 52 1014.0
20260507162017 13 338 4.8 11.3 0.00 0.00 0.00 46 1014.1
20260507161017 13 0 8.0 19.3 0.00 0.00 0.00 45 1014.2
20260507160017 13 338 4.8 16.1 0.00 0.00 0.00 50 1014.1
20260507155017 13 315 6.4 16.1 0.00 0.00 0.00 49 1014.0
20260507154017 13 270 3.2 8.0 0.00 0.00 0.00 52 1014.1
20260507153017 13 338 3.2 11.3 0.00 0.00 0.00 51 1014.0
20260507152017 12 338 3.2 11.3 0.00 0.00 0.00 54 1014.3
20260507151017 12 315 3.2 8.0 0.00 0.00 0.00 50 1014.2
20260507150017 12 0 3.2 9.7 0.00 0.00 0.00 52 1014.0
20260507145016 12 338 4.8 17.7 0.00 0.00 0.00 51 1014.0
20260507144016 12 315 3.2 6.4 0.00 0.00 0.00 55 1014.0
20260507143016 12 270 3.2 8.0 0.00 0.00 0.00 55 1014.1
20260507142016 12 293 3.2 9.7 0.00 0.00 0.00 51 1014.1
20260507141017 12 338 3.2 8.0 0.00 0.00 0.00 53 1014.2
20260507140017 11 293 3.2 8.0 0.00 0.00 0.00 53 1014.1
20260507135016 11 315 3.2 11.3 0.00 0.00 0.00 54 1014.1
20260507134016 11 270 1.6 4.8 0.00 0.00 0.00 58 1014.0
20260507133016 11 0 4.8 11.3 0.00 0.00 0.00 53 1013.9
20260507132016 10 338 4.8 11.3 0.00 0.00 0.00 53 1014.1
20260507131017 10 270 1.6 8.0 0.00 0.00 0.00 59 1014.0
20260507130016 10 0 4.8 9.7 0.00 0.00 0.00 59 1013.9
20260507125016 9 338 1.6 4.8 0.00 0.00 0.00 67 1014.0
20260507124016 8 0.0 3.2 0.00 0.00 0.00 72 1014.0
20260507123016 7 0.0 1.6 0.00 0.00 0.00 87 1014.3
20260507122016 6 0.0 1.6 0.00 0.00 0.00 94 1014.3
20260507121016 5 0.0 0.0 0.00 0.00 0.00 94 1014.1
20260507120016 4 0.0 0.0 0.00 0.00 0.00 94 1014.1
20260507115016 3 0.0 0.0 0.00 0.00 0.00 93 1014.1
20260507114016 2 0.0 0.0 0.00 0.00 0.00 93 1014.1
20260507113016 2 0.0 0.0 0.00 0.00 0.00 92 1014.0
20260507112016 2 0.0 0.0 0.00 0.00 0.00 91 1014.1
20260507111016 2 0.0 0.0 0.00 0.00 0.00 91 1014.0
20260507110016 2 0.0 0.0 0.00 0.00 0.00 91 1013.8
20260507105016 2 0.0 0.0 0.00 0.00 0.00 90 1013.7
20260507104016 2 0.0 0.0 0.00 0.00 0.00 90 1013.5
20260507103016 2 0.0 0.0 0.00 0.00 0.00 90 1013.5
20260507102016 3 0.0 0.0 0.00 0.00 0.00 91 1013.5
20260507101016 3 0.0 0.0 0.00 0.00 0.00 91 1013.6
20260507100015 3 0.0 0.0 0.00 0.00 0.00 91 1013.6
20260507095016 3 0.0 0.0 0.00 0.00 0.00 92 1013.6
20260507094015 3 0.0 0.0 0.00 0.00 0.00 92 1013.6
20260507093018 3 0.0 1.6 0.00 0.00 0.00 92 1013.6
20260507092038 3 0.0 0.0 0.00 0.00 0.00 92 1013.5
20260507091037 3 0.0 0.0 0.00 0.00 0.00 92 1013.4
20260507090038 3 0.0 0.0 0.00 0.00 0.00 92 1013.3
20260507085058 3 0.0 0.0 0.00 0.00 0.00 92 1013.2
20260507084037 3 0.0 0.0 0.00 0.00 0.00 92 1013.1
20260507083017 3 0.0 0.0 0.00 0.00 0.00 92 1013.0
20260507082017 3 0.0 0.0 0.00 0.00 0.00 92 1012.9
20260507081037 3 0.0 0.0 0.00 0.00 0.00 92 1012.9
20260507080017 3 0.0 0.0 0.00 0.00 0.00 91 1012.9
20260507075037 3 0.0 0.0 0.00 0.03 0.00 91 1012.9
20260507074017 3 0.0 0.0 0.00 0.03 0.00 91 1013.0
20260507073017 3 0.0 0.0 0.00 0.05 0.00 91 1013.0
20260507072017 3 0.0 0.0 0.00 0.08 0.00 91 1012.9
20260507071058 3 0.0 0.0 0.00 0.08 0.00 91 1012.9
20260507070017 4 0.0 0.0 0.00 0.10 0.00 91 1012.9
20260507065017 4 0.0 0.0 0.00 0.18 0.00 91 1013.0
20260507064017 4 0.0 0.0 0.00 0.23 0.00 91 1013.1
20260507063017 5 0.0 0.0 0.00 0.25 0.00 91 1013.2
20260507062037 5 0.0 0.0 0.00 0.25 0.00 91 1013.1
20260507061017 5 0.0 0.0 0.00 0.25 0.00 91 1013.1
20260507060017 5 0.0 0.0 0.00 0.28 0.00 91 1013.1
20260507055017 5 0.0 0.0 0.00 0.30 0.00 91 1013.2
20260507054017 5 0.0 0.0 0.00 0.38 0.00 91 1013.1
20260507053017 5 0.0 0.0 0.00 0.43 0.00 90 1013.1
20260507052016 5 0.0 0.0 0.00 0.46 0.00 90 1013.2
20260507051017 5 0.0 0.0 0.00 0.53 0.00 90 1013.1
20260507050016 5 0.0 0.0 0.00 0.61 0.00 90 1013.1
20260507045016 5 0.0 0.0 0.00 0.76 0.00 90 1013.2
20260507044016 6 0.0 0.0 0.00 0.94 0.00 90 1013.2
20260507043016 6 0.0 0.0 0.00 1.14 0.00 90 1013.1
20260507042016 6 0.0 0.0 0.00 1.19 0.00 89 1013.1
20260507041016 6 0.0 0.0 0.00 1.24 0.00 89 1013.0
20260507040017 6 0.0 0.0 0.00 1.32 1.32 89 1013.2
20260507035016 6 0.0 0.0 0.00 1.40 1.32 89 1013.1
20260507034016 6 0.0 0.0 0.00 1.50 1.32 88 1013.2
20260507033016 7 0.0 0.0 0.00 1.55 1.32 88 1013.1
20260507032016 7 0.0 0.0 0.00 1.63 1.32 88 1013.0
20260507031036 7 0.0 0.0 0.00 1.63 1.32 88 1013.1
20260507030016 7 0.0 0.0 0.00 1.63 1.32 88 1013.1
20260507025016 7 0.0 0.0 0.00 1.65 1.32 88 1013.1
20260507024015 7 0.0 0.0 0.00 1.70 1.32 88 1013.1
20260507023016 7 0.0 0.0 0.00 1.78 1.32 87 1013.1
20260507022016 8 0.0 0.0 0.00 1.80 1.32 86 1013.0
20260507021015 8 0.0 0.0 0.00 1.91 1.32 85 1012.8
20260507020015 8 0.0 1.6 0.00 2.11 1.32 85 1012.7
20260507015016 8 0.0 1.6 0.00 2.21 1.32 84 1012.6
20260507014036 9 0.0 0.0 0.00 2.31 1.32 83 1012.5
20260507013058 9 0.0 0.0 0.00 2.36 1.32 82 1012.5
20260507012016 9 0.0 0.0 0.00 2.41 1.32 80 1012.2
20260507011018 10 0.0 0.0 0.00 2.44 1.32 78 1012.1
20260507010017 10 0.0 0.0 0.00 2.44 1.32 77 1012.3
20260507005017 11 0.0 0.0 0.00 2.51 1.32 76 1012.3
20260507004037 11 0.0 1.6 0.00 2.64 1.32 74 1012.2
20260507003037 12 0.0 0.0 0.00 2.77 1.32 70 1012.2
20260507002017 12 0.0 0.0 0.00 2.82 1.32 69 1012.0
20260507001017 13 0.0 0.0 0.00 2.82 1.32 66 1011.8
20260507000017 13 0.0 1.6 0.00 2.82 1.32 65 1011.7
20260506235057 13 0.0 1.6 0.00 2.84 1.32 62 1011.7
20260506234017 13 0.0 3.2 0.00 2.92 1.32 62 1011.6
20260506233017 13 0.0 1.6 0.00 2.92 1.32 64 1011.7
20260506232057 13 0.0 3.2 0.00 2.95 1.32 61 1011.6
20260506231017 13 338 3.2 8.0 0.00 2.97 1.32 62 1011.4
20260506230017 14 338 1.6 6.4 0.00 3.02 1.32 63 1011.6
20260506225017 14 338 3.2 4.8 0.00 3.05 1.32 61 1011.5
20260506224017 14 293 1.6 6.4 0.00 3.05 1.32 59 1011.6
20260506223017 14 338 3.2 8.0 0.00 3.07 1.32 58 1011.7
20260506222017 14 338 3.2 6.4 0.00 3.07 1.32 59 1011.8
20260506221017 14 315 1.6 3.2 0.00 3.07 1.32 60 1011.7
20260506220017 14 0 3.2 4.8 0.00 3.10 1.32 57 1011.8
20260506215117 15 338 1.6 4.8 0.00 3.12 1.32 56 1012.0
20260506214017 15 315 1.6 3.2 0.00 3.17 1.32 57 1011.8
20260506213057 15 338 3.2 8.0 0.00 3.20 1.32 56 1011.6
20260506212017 15 338 1.6 4.8 0.00 3.23 1.32 55 1011.7
20260506211017 15 0.0 3.2 0.00 3.25 1.32 55 1011.7
20260506210017 15 0 1.6 4.8 0.00 3.25 1.32 59 1011.4
20260506205017 14 0 3.2 9.7 0.00 3.28 1.32 55 1011.4
20260506204016 14 0 3.2 8.0 0.00 3.30 1.32 59 1011.4
20260506203016 14 338 3.2 6.4 0.00 3.30 1.32 55 1011.3
20260506202016 15 338 1.6 4.8 0.00 3.30 1.32 58 1011.6